Burlington, WA
on Thursday, November 8, 2012

Thursday
Previous Day Next Day
Daily Summary
 ActualAverage (KBLI)Record (KBLI)
Temperature
Mean Temperature °F 45°F  
Max Temperature 51°F 52°F 63°F (2008)
Min Temperature 33°F 38°F 27°F (1979)
Degree Days
Heating Degree Days 23 20  
Month to date heating degree days 155  
Cooling Degree Days 0 0  
Month to date cooling degree days 0  
Year to date cooling degree days 42  
Moisture
Dew Point 36°F   
Average Humidity 83    
Maximum Humidity 100    
Minimum Humidity 54    
Precipitation
Precipitation 0.00 in 0.20 in 1.16 in (1989)
Month to date precipitation 1.53  
Year to date precipitation 27.34  
Wind
Wind Speed 7 mph   
Max Wind Speed 14 mph   
Max Gust Speed 18 mph   
Visibility 9 miles   
Events     

Key: T is trace of precipitation, MM is missing value
Source: NWS Daily Summary
Time(PST)TemperatureDew PointHumidity Pressure Visibility Wind DirectionWind SpeedGust SpeedPrecipitationEvents Conditions
12:35 AM 41.0°F 39.2°F 93% 29.97 in 10.0 miles NE 9.2 mph - 0.00 in   Partly Cloudy
12:55 AM 39.2°F 39.2°F 100% 29.96 in 10.0 miles NE 8.1 mph - 0.00 in   Scattered Clouds
1:15 AM 39.2°F 39.2°F 100% 29.96 in 10.0 miles NE 10.4 mph - 0.00 in   Partly Cloudy
1:35 AM 39.2°F 39.2°F 100% 29.95 in 10.0 miles NE 10.4 mph - 0.00 in   Clear
1:55 AM 39.2°F 39.2°F 100% 29.95 in 10.0 miles NE 9.2 mph - 0.00 in   Clear
2:15 AM 37.4°F 37.4°F 100% 29.95 in 10.0 miles NE 8.1 mph - 0.00 in   Clear
2:35 AM 39.2°F 37.4°F 93% 29.94 in 10.0 miles ENE 13.8 mph 18.4 mph 0.00 in   Clear
2:55 AM 39.2°F 37.4°F 93% 29.94 in 10.0 miles NE 8.1 mph - 0.00 in   Clear
3:15 AM 39.2°F 37.4°F 93% 29.93 in 10.0 miles NE 9.2 mph - 0.00 in   Clear
3:35 AM 37.4°F 37.4°F 100% 29.93 in 10.0 miles NE 9.2 mph - 0.00 in   Clear
4:15 AM 37.4°F 37.4°F 100% 29.92 in 10.0 miles NE 8.1 mph - 0.00 in   Clear
4:35 AM 37.4°F 37.4°F 100% 29.91 in 10.0 miles NE 10.4 mph - 0.00 in   Clear
4:55 AM 37.4°F 37.4°F 100% 29.91 in 10.0 miles NE 8.1 mph - 0.00 in   Clear
5:15 AM 37.4°F 37.4°F 100% 29.91 in 10.0 miles NE 9.2 mph - 0.00 in   Clear
5:35 AM 37.4°F 37.4°F 100% 29.90 in 10.0 miles NNE 9.2 mph - 0.00 in   Clear
5:55 AM 37.4°F 35.6°F 93% 29.90 in 10.0 miles NE 8.1 mph - 0.00 in   Clear
6:15 AM 37.4°F 35.6°F 93% 29.90 in 10.0 miles NE 10.4 mph - 0.00 in   Clear
6:35 AM 37.4°F 35.6°F 93% 29.90 in 10.0 miles NNE 8.1 mph - 0.00 in   Clear
6:55 AM 37.4°F 35.6°F 93% 29.90 in 10.0 miles NE 6.9 mph - 0.00 in   Clear
7:15 AM 37.4°F 35.6°F 93% 29.90 in 10.0 miles NE 8.1 mph - 0.00 in   Clear
7:35 AM 37.4°F 35.6°F 93% 29.90 in 10.0 miles NNE 4.6 mph - 0.00 in   Clear
7:55 AM 37.4°F 35.6°F 93% 29.90 in 10.0 miles North 4.6 mph - 0.00 in   Clear
8:35 AM 39.2°F 35.6°F 87% 29.90 in 10.0 miles NE 5.8 mph - 0.00 in   Clear
10:15 AM 42.8°F 39.2°F 87% 29.88 in 10.0 miles North 6.9 mph - 0.00 in   Clear
10:35 AM 44.6°F 39.2°F 81% 29.88 in 10.0 miles NNW 4.6 mph - 0.00 in   Clear
10:55 AM 44.6°F 37.4°F 76% 29.87 in 9.0 miles Calm Calm - 0.00 in   Clear
11:15 AM 46.4°F 39.2°F 76% 29.86 in 7.0 miles ENE 5.8 mph - 0.00 in   Clear
11:35 AM 46.4°F 39.2°F 76% 29.86 in 7.0 miles NE 4.6 mph - 0.00 in   Clear
11:55 AM 46.4°F 39.2°F 76% 29.85 in 8.0 miles NNE 3.5 mph - 0.00 in   Clear
12:15 PM 48.2°F 37.4°F 66% 29.85 in 9.0 miles Calm Calm - 0.00 in   Clear
12:35 PM 48.2°F 37.4°F 66% 29.85 in 9.0 miles NW 4.6 mph - 0.00 in   Clear
12:55 PM 50.0°F 39.2°F 66% 29.84 in 7.0 miles NNE 6.9 mph - 0.00 in   Clear
1:15 PM 50.0°F 39.2°F 66% 29.83 in 9.0 miles NNW 4.6 mph - 0.00 in   Clear
1:35 PM 51.8°F 35.6°F 54% 29.83 in 8.0 miles North 3.5 mph - 0.00 in   Clear
1:55 PM 51.8°F 37.4°F 58% 29.82 in 8.0 miles NE 5.8 mph - 0.00 in   Clear
2:15 PM 51.8°F 37.4°F 58% 29.82 in 7.0 miles NNE 5.8 mph - 0.00 in   Clear
2:35 PM 51.8°F 37.4°F 58% 29.82 in 5.0 miles NE 4.6 mph - 0.00 in   Clear
2:55 PM 51.8°F 35.6°F 54% 29.82 in 5.0 miles ENE 3.5 mph - 0.00 in   Clear
3:15 PM 51.8°F 37.4°F 58% 29.82 in 5.0 miles East 3.5 mph - 0.00 in   Clear
3:35 PM 51.8°F 37.4°F 58% 29.82 in 8.0 miles East 3.5 mph - 0.00 in   Clear
3:55 PM 51.8°F 37.4°F 58% 29.82 in 9.0 miles Calm Calm - 0.00 in   Clear
4:15 PM 46.4°F 37.4°F 71% 29.82 in 8.0 miles Calm Calm - 0.00 in   Clear
4:35 PM 46.4°F 37.4°F 71% 29.82 in 10.0 miles WNW 3.5 mph - 0.00 in   Clear
4:55 PM 42.8°F 37.4°F 81% 29.82 in 5.0 miles NW 3.5 mph - 0.00 in   Clear
5:15 PM 42.8°F 35.6°F 76% 29.82 in 10.0 miles WNW 3.5 mph - 0.00 in   Clear
5:55 PM 37.4°F 33.8°F 87% 29.82 in 10.0 miles NW 4.6 mph - 0.00 in   Clear
6:15 PM 37.4°F 33.8°F 87% 29.82 in 10.0 miles NW 5.8 mph - 0.00 in   Clear
6:35 PM 39.2°F 35.6°F 87% 29.83 in 10.0 miles NW 5.8 mph - 0.00 in   Scattered Clouds
6:55 PM 37.4°F 33.8°F 87% 29.83 in 10.0 miles NW 4.6 mph - 0.00 in   Partly Cloudy
7:15 PM 37.4°F 33.8°F 87% 29.83 in 10.0 miles WNW 6.9 mph - 0.00 in   Partly Cloudy
7:35 PM 39.2°F 33.8°F 81% 29.83 in 10.0 miles NNW 4.6 mph - 0.00 in   Partly Cloudy
7:55 PM 39.2°F 33.8°F 81% 29.82 in 10.0 miles NW 4.6 mph - 0.00 in   Clear
8:15 PM 37.4°F 32.0°F 81% 29.83 in 10.0 miles NW 4.6 mph - 0.00 in   Clear
8:35 PM 35.6°F 32.0°F 87% 29.83 in 10.0 miles NW 4.6 mph - 0.00 in   Clear
8:55 PM 37.4°F 33.8°F 87% 29.84 in 10.0 miles Calm Calm - 0.00 in   Clear
9:15 PM 37.4°F 32.0°F 81% 29.84 in 10.0 miles Calm Calm - 0.00 in   Clear
9:35 PM 37.4°F 32.0°F 81% 29.84 in 10.0 miles NE 4.6 mph - 0.00 in   Clear
9:55 PM 39.2°F 33.8°F 81% 29.84 in 8.0 miles NE 5.8 mph - 0.00 in   Clear
10:15 PM 39.2°F 33.8°F 81% 29.84 in 10.0 miles NE 5.8 mph - 0.00 in   Clear
10:35 PM 39.2°F 32.0°F 75% 29.84 in 9.0 miles NE 5.8 mph - 0.00 in   Clear
10:55 PM 37.4°F 33.8°F 87% 29.84 in 8.0 miles Calm Calm - 0.00 in   Clear
11:15 PM 37.4°F 33.8°F 87% 29.84 in 8.0 miles Calm Calm - 0.00 in   Clear
11:35 PM 33.8°F 32.0°F 93% 29.85 in 8.0 miles Calm Calm - 0.00 in   Clear
11:55 PM 35.6°F 32.0°F 87% 29.85 in 5.0 miles Calm Calm - 0.00 in   Clear
Moon Phase
Nov. 08 Nov. 13 Nov. 20 Nov. 28 Dec. 06
Sunrise:07:07 AM (PST) Moon Rise:12:41 AM (PST)11/8
Sunset:04:38 PM (PST) Moon Set:01:46 PM (PST)11/8

Copyright © 2014 The Weather Underground, Inc.